Skip Page Navigation
NASA JPL Caltech
NASA Logo - Jet Propulsion Laboratory + View the NASA Portal
+ Center for Near-Earth Object Studies
JPL Home Earth Solar System Stars & Galaxies Technology
JPL Solar System Dynamics
BODIES ORBITS EPHEMERIDES TOOLS PHYSICAL DATA DISCOVERY FAQ SITE MAP
JPL Small-Body Database Browser
Search: [ help ]  
(2014 OL339)
Classification: Aten [NEO]          SPK-ID: 3678630
Ephemeris | Orbit Diagram | Orbital Elements | Mission Design | Physical Parameters | Close-Approach Data ]

[ hide orbit diagram ]

For accurate long-term ephemerides, please instead use our Horizons system.This orbit viewer was implemented using two-body methods, and hence should not be used for determining accurate long-term trajectories (over several years or decades) or planetary encounter circumstances.


[ revert to old Java-based viewer ]

Orbital Elements at Epoch 2459000.5 (2020-May-31.0) TDB
Reference: JPL 20 (heliocentric ecliptic J2000)
 Element Value Uncertainty (1-sigma)   Units 
e .4607506022453289 4.8601e-06  
a .999144419709158 1.236e-08 au
q .5387880265981038 4.8566e-06 au
i 10.18675636353096 7.2291e-05 deg
node 252.1493503765495 0.00045877 deg
peri 289.6758870083042 0.00028866 deg
M 29.20540133357832 0.00016844 deg
tp 2458970.906147463791
(2020-May-01.40614746)
0.00017061 TDB
period 364.788238701111
1.00
6.7688e-06
1.853e-08
d
yr
n .9868739224757894 1.8312e-08 deg/d
Q 1.459500812820212 1.8054e-08 au
  Orbit Determination Parameters
   # obs. used (total)      62  
   data-arc span      1850 days (5.07 yr)  
   first obs. used      2014-07-29  
   last obs. used      2019-08-22  
   planetary ephem.      DE431  
   SB-pert. ephem.      SB431-N16  
   condition code      1  
   norm. resid. RMS      .48949  
   source      ORB  
   producer      Otto Matic  
   solution date      2019-Sep-18 05:48:42  

Additional Information
 Earth MOID = .0181046 au 
 Jupiter MOID = 3.5344 au 
 T_jup = 5.973 
[ show covariance matrix ]

Ephemeris | Orbit Diagram | Orbital Elements | Mission Design | Physical Parameters | Close-Approach Data ]

Physical Parameter Table
Parameter Symbol Value Units Sigma Reference Notes
absolute magnitude H 22.9   n/a MPO315296  

[ hide close-approach data ]
Close-Approach Data   ...sorted by Date/Time (TDB)
Date/Time (TDB) Time Uncertainty
(days_HH:MM)
Body Nominal Distance (au) Minimum Distance (au) Maximum Distance (au) V-relative (km/s) V-infinity (km/s) JD (TDB) Time Uncertainty (minutes) Semi-major axis (km) Semi-minor axis (km) range-LOV angle (deg) N-sigma BP Orbit Ref. Reference Modified
1900-Feb-08 14:27 00:10 Earth 0.418754868588353 0.418722163408904 0.418787574311091 14.8876142098448 14.8871868107331 2415059.102193044 10.2266139921469 1796.06570990297 38.6527028185405 -24.783644973467 443384.522647845 T 20 CATAB v2.0f-lin.ifort 2019-Sep-18 05:48:44 2019-Sep-18 05:48
1900-Oct-29 16:17 00:09 Earth 0.402240145147421 0.402200830726861 0.402279459606736 10.8518854514014 10.8512750240876 2415322.178175801 9.30859876448739 1970.36366687742 132.114251172955 5.80026066129417 42780.4308812109 T 20 CATAB v2.0f-lin.ifort 2019-Sep-18 05:48:44 2019-Sep-18 05:48
1901-Feb-07 19:49 00:10 Earth 0.416168635008812 0.416135755385135 0.416201515140512 14.709322492805 14.7088872247781 2415423.325664236 10.0892604150509 1792.84916186103 39.7317852069855 -23.8825994562044 413347.244058351 T 20 CATAB v2.0f-lin.ifort 2019-Sep-18 05:48:44 2019-Sep-18 05:48
1901-Oct-30 16:19 00:09 Earth 0.398790372867322 0.398751167394767 0.398829578368644 10.8016562006749 10.8010376293603 2415688.180081884 9.22251405300412 1962.33691447953 133.220227794311 5.00367844488048 38688.4565358567 T 20 CATAB v2.0f-lin.ifort 2019-Sep-18 05:48:44 2019-Sep-18 05:48
1902-Feb-07 01:37 00:10 Earth 0.413649979414665 0.413617039439232 0.41368291985505 14.5116989609792 14.5112550787778 2415787.567014149 10.0065130804081 1782.32236823795 40.5821179339288 -22.8590621884733 383717.311020241 T 20 CATAB v2.0f-lin.ifort 2019-Sep-18 05:48:44 2019-Sep-18 05:48
1902-Oct-31 10:51 00:09 Earth 0.395840530377537 0.395801794128454 0.395879266657739 10.7916001281149 10.7909763662729 2416053.951865326 8.97085027988957 1939.57293429088 134.816315739144 5.24467396324094 39223.2754634686 T 20 CATAB v2.0f-lin.ifort 2019-Sep-18 05:48:44 2019-Sep-18 05:48
1903-Feb-06 11:12 00:10 Earth 0.411432058983626 0.411399321136043 0.411464797264667 14.3800646243637 14.3796142639695 2416151.966395390 9.76556615516732 1763.19559066452 41.7759384550494 -22.2199458250268 359768.181390915 T 20 CATAB v2.0f-lin.ifort 2019-Sep-18 05:48:44 2019-Sep-18 05:48
1903-Nov-01 06:40 00:09 Earth 0.39312333873168 0.393085087520354 0.393161589965286 10.7415093435772 10.7408783412296 2416419.777457640 8.92281451897437 1913.16213158696 135.726204393558 4.49700725416861 35387.8090517818 T 20 CATAB v2.0f-lin.ifort 2019-Sep-18 05:48:44 2019-Sep-18 05:48
1904-Feb-05 21:40 00:10 Earth 0.409349829796668 0.409317238587332 0.409382421402993 14.2359487628286 14.2354915290564 2416516.402727252 9.5074713829685 1745.18272447295 42.8778067334185 -21.3923417288157 336285.100264172 T 20 CATAB v2.0f-lin.ifort 2019-Sep-18 05:48:44 2019-Sep-18 05:48
1904-Nov-01 03:13 00:09 Earth 0.390212881375817 0.390175172493938 0.390250590278413 10.7216354706589 10.720998583318 2416785.633888335 8.62325422619164 1885.75876617441 137.178970789182 4.38625887461726 35056.4242210736 T 20 CATAB v2.0f-lin.ifort 2019-Sep-18 05:48:44 2019-Sep-18 05:48
1905-Feb-04 08:56 00:09 Earth 0.407229155978545 0.407196858536306 0.407261453778471 14.0675929821654 14.0671278665957 2416880.872524668 9.31145941340557 1719.4076117262 43.737421356803 -20.5216077764333 313324.072400676 T 20 CATAB v2.0f-lin.ifort 2019-Sep-18 05:48:44 2019-Sep-18 05:48
1905-Nov-01 20:30 00:08 Earth 0.387374244423918 0.387337291791972 0.387411197075571 10.6942887950322 10.6936455998733 2417151.354027750 8.45188778785243 1847.85216164359 138.527168237437 4.35494394537279 34354.0968168265 T 20 CATAB v2.0f-lin.ifort 2019-Sep-18 05:48:44 2019-Sep-18 05:48
1906-Feb-03 20:27 00:09 Earth 0.404994426826701 0.404962553429618 0.405026300551883 13.9417344333635 13.9412625291511 2417245.352342864 8.98229230515762 1690.23816469251 45.0180180064528 -19.9165439713827 293531.321252716 T 20 CATAB v2.0f-lin.ifort 2019-Sep-18 05:48:44 2019-Sep-18 05:48
1906-Nov-02 16:16 00:08 Earth 0.384663100852483 0.384626844153391 0.384699357565022 10.645772803882 10.6451221232085 2417517.177753701 8.26805044178819 1811.55037635847 139.55270787803 3.67477398408649 31954.1671909601 T 20 CATAB v2.0f-lin.ifort 2019-Sep-18 05:48:44 2019-Sep-18 05:48
1907-Feb-03 07:27 00:09 Earth 0.402848570451798 0.402817065621505 0.402880075574745 13.7961227326195 13.7956433072333 2417609.810267149 8.65659801697124 1661.79080420467 46.0722093231306 -19.0513986774463 273205.79326202 T 20 CATAB v2.0f-lin.ifort 2019-Sep-18 05:48:44 2019-Sep-18 05:48
1907-Mar-30 01:17 00:02 Venus 0.0286806252312782 0.0286675706043297 0.0286936800538243 18.109343438216 18.1051619799339 2417664.553379554 2.05068543320057 662.828358303314 208.744359574406 -11.4549454912267 7280.8410728722 T 20 CATAB v2.0f-lin.ifort 2019-Sep-18 05:48:44 2019-Sep-18 05:48
1907-Nov-03 01:25 00:08 Earth 0.384654589813851 0.384620630369733 0.384688549272619 10.6694309095876 10.6687816574379 2417882.558834663 7.63191396481167 1697.58227448322 141.745654601308 4.08473575795083 34412.0171435672 T 20 CATAB v2.0f-lin.ifort 2019-Sep-18 05:48:44 2019-Sep-18 05:48
1908-Feb-03 14:02 00:08 Earth 0.402752092902118 0.402722305203992 0.402781880833715 13.7745636671748 13.7740833763705 2417975.084717151 7.77596971056527 1562.19579174456 46.6667439110026 -18.0694845233194 256079.586389517 T 20 CATAB v2.0f-lin.ifort 2019-Sep-18 05:48:44 2019-Sep-18 05:48
1908-Nov-02 04:43 00:07 Earth 0.385253909007872 0.385222466094673 0.385285351934495 10.6621014173329 10.6614527295704 2418247.696245542 7.057054501063 1572.05952754261 142.840508258388 4.23055106521278 35874.9541580594 T 20 CATAB v2.0f-lin.ifort 2019-Sep-18 05:48:44 2019-Sep-18 05:48
1909-Feb-02 23:43 00:07 Earth 0.40312106393731 0.403093237193295 0.403148890870142 13.8293579011615 13.828879951285 2418340.488071075 6.716805631981 1454.29775646726 48.8228780682903 -17.4495314734165 238526.388730199 T 20 CATAB v2.0f-lin.ifort 2019-Sep-18 05:48:44 2019-Sep-18 05:48
1909-Nov-02 10:03 00:06 Earth 0.385812249874416 0.385783268701395 0.385841231061538 10.6651683264204 10.6645207637362 2418612.918786230 6.34453491458974 1449.89516915217 144.50150458809 4.70090046372056 39408.7479398066 T 20 CATAB v2.0f-lin.ifort 2019-Sep-18 05:48:44 2019-Sep-18 05:48
1910-Feb-03 08:52 00:06 Earth 0.403571512467061 0.403545583612528 0.403597441464949 13.8402639192162 13.8397868790285 2418705.869277821 5.73505202214478 1347.53841451947 50.7722072746489 -16.3951874900157 217347.506304631 T 20 CATAB v2.0f-lin.ifort 2019-Sep-18 05:48:44 2019-Sep-18 05:48
1910-Nov-02 10:25 00:06 Earth 0.386781010708819 0.38675466654604 0.386807354888967 10.6937313935714 10.6930871782889 2418977.934079220 5.59947596866926 1320.09878494939 146.367223256821 5.73454928426599 44589.3600895048 T 20 CATAB v2.0f-lin.ifort 2019-Sep-18 05:48:44 2019-Sep-18 05:48
1911-Feb-03 22:10 00:05 Earth 0.404304836742586 0.404280968129065 0.404328705461825 13.8890740571438 13.8885995556927 2419071.423714861 4.71256321668193 1234.16026499085 53.3212219970386 -15.3706616443745 196087.199301352 T 20 CATAB v2.0f-lin.ifort 2019-Sep-18 05:48:44 2019-Sep-18 05:48
1911-Nov-02 11:50 00:05 Earth 0.387919747846232 0.38789599668373 0.387943499024632 10.6832371780497 10.6825942229185 2419342.992882201 4.96607370478903 1190.94146770018 148.131486570095 6.11241404601851 47806.4116973401 T 20 CATAB v2.0f-lin.ifort 2019-Sep-18 05:48:44 2019-Sep-18 05:48
